Regional Weather Roundup
Issued by NWS

Home | Current Version | Previous Version | Text Only | Print | Product List | Glossary Off
Versions: 1 2 3 4 5 6 7 8 9 10 11 12 13 14 15 16 17 18 19 20 21 22 23 24 25 26 27 28 29 30 31 32 33 34 35 36 37 38 39 40 41 42 43 44 45 46 47 48 49 50

000
ASUS43 KLOT 261310
RWRIL

ILLINOIS REGIONAL WEATHER ROUNDUP
NATIONAL WEATHER SERVICE CHICAGO/ROMEOVILLE IL
800 AM CDT SAT JUL 26 2014

NOTE: "FAIR" INDICATES FEW OR NO CLOUDS BELOW 12,000 FEET WITH NO
SIGNIFICANT WEATHER AND/OR OBSTRUCTIONS TO VISIBILITY.

* THESE STATIONS ARE NOT UNDER NWS QUALITY CONTROL. THEY ALSO MAY NOT
  REPORT WEATHER SUCH AS PRECIPITATION OR FOG.

ILZ001-002-007-009-015-016-024-261400-
NORTHWEST ILLINOIS

CITY           SKY/WX    TMP DP  RH WIND       PRES   REMARKS
MOLINE         CLOUDY    69  64  84 E6        29.81F
STERLING*      CLOUDY    68  63  83 SE6       29.84S
SAVANNA*       MOSUNNY   71  62  73 CALM      29.84R
$$

ILZ003-004-008-010-011-017-018-261400-
NORTH CENTRAL ILLINOIS

CITY           SKY/WX    TMP DP  RH WIND       PRES   REMARKS
ROCKFORD       CLOUDY    70  63  78 S5        29.86F
FREEPORT*      PTSUNNY   66  62  87 SW3       29.87R
ROCHELLE*      MOSUNNY   69  63  80 S6        29.84F
DE KALB*       MOSUNNY   67  62  83 S7        29.85F
PERU*          CLOUDY    69  64  85 CALM      29.84F
$$

ILZ005-006-012>014-019>023-261400-
NORTHEAST ILLINOIS

CITY           SKY/WX    TMP DP  RH WIND       PRES   REMARKS
CHICAGO-OHARE  PTSUNNY   70  61  73 S5        29.85R
CHICAGO-MIDWAY CLOUDY    72  63  73 S8        29.85S
AURORA         CLOUDY    70  62  76 S6        29.85F
LANSING*       CLOUDY    68  62  79 S5        29.87S
JOLIET*        PTSUNNY   69  62  80 S6        29.86F
WAUKEGAN       CLOUDY    67  60  78 E6        29.84F
DUPAGE AIRPORT CLOUDY    71  63  75 S8        29.84S
KANKAKEE*      CLOUDY    68  64  88 S7        29.87F
WHEELING       PTSUNNY   72  62  71 SW3       29.87R
MORRIS*        PTSUNNY   70  64  82 S5        29.85S
ROMEOVILLE*    CLOUDY    69  62  80 S7        29.85F
NORTHERLY ISL    N/A     70  61  73 SW3         N/A
$$

LMZ740>746-261400-
SOUTHERN LAKE MICHIGAN

STATION/POSITION SKY/WX   TEMP    WIND        PRES    VSBY  WAVE
                          AIR SEA DIR/SP/G                  HT/PER
                          (F)     (DEG/KT/KT) (MB)    (MI)  (FT/S)
SOUTHERN BUOY              63 61  150/  8/  8 1011.2F         1
WAUKEGAN HARBOR            66      60/  3/  4   N/A
HARRISON CRIB              68     170/ 10/ 11   N/A
BURNHAM HARBOR             70     200/  4/  8   N/A
CALUMET HARBOR             69     190/  5/  7 1010.0F
MICHIGAN CITY              68     170/  7/ 10   N/A
MICHIGAN CITY 6N           68 68  190/  6/  8   N/A           1
ST. JOSEPH                 66 66  150/  8/  8   N/A           1
$$

ILZ025>027-034>036-040-047-049-050-058-095>099-261400-
WEST-CENTRAL ILLINOIS

CITY           SKY/WX    TMP DP  RH WIND       PRES   REMARKS
QUINCY         MOSUNNY   77  71  82 SW13      29.82F
GALESBURG*     CLOUDY    71  68  92 SW5       29.82S
MACOMB*        MOSUNNY   73  70  89 SW9       29.83S
JACKSONVILLE*  SUNNY     75  70  84 S9        29.85F
PITTSFIELD*    MOSUNNY   77  71  81 SW8       29.85F
$$

ILZ028>032-037-038-041>044-048-051>054-059>061-261400-
CENTRAL ILLINOIS

CITY           SKY/WX    TMP DP  RH WIND       PRES   REMARKS
PONTIAC        MOSUNNY   72  68  88 S5        29.84F
DECATUR        SUNNY     73  67  81 SW15      29.87S
PEORIA         MOSUNNY   73  66  78 S9        29.82F
LACON*         CLOUDY    71  65  83 SW3       29.82S
LINCOLN*       MOSUNNY   73  66  80 SW5       29.82F
SPRINGFIELD    SUNNY     73  67  81 SW10      29.85F
TAYLORVILLE    MOSUNNY   70  66  88 S10       29.87S
$$

ILZ033-039-045-046-055>057-062-063-261400-
EAST-CENTRAL ILLINOIS

CITY           SKY/WX    TMP DP  RH WIND       PRES   REMARKS
CHAMPAIGN      MOSUNNY   71  66  84 S9        29.89R
DANVILLE*      PTSUNNY   68  64  89 S7        29.87S
RANTOUL*       MOSUNNY   71  64  77 S8        29.89S
MATTOON        PTSUNNY   70  65  84 S10       29.89R
PARIS*         PTSUNNY   72  66  80 S6        29.92S
$$

ILZ079-100>102-261400-
SOUTHWEST ILLINOIS

CITY           SKY/WX    TMP DP  RH WIND       PRES   REMARKS
ALTON          MOSUNNY   72  72 100 S9        29.90S
BELLEVILLE     MOSUNNY   71  69  92 VRB3      29.90S
CAHOKIA*       MOSUNNY   73  68  84 SE6       29.89S
SPARTA*        CLOUDY    70  66  88 S8        29.93S
$$

ILZ064>066-069>071-074>076-080>082-084>086-088>090-092>094-261400-
SOUTH-CENTRAL ILLINOIS

CITY           SKY/WX    TMP DP  RH WIND       PRES   REMARKS
CARBONDALE     MOSUNNY   71  67  87 S10       29.94F
CAIRO*         SUNNY     74  67  80 S6        29.99R
EFFINGHAM*     RAIN      70  65  83 S5        29.91R
MARION         PTSUNNY   72  68  88 S12       29.96R
MT. VERNON     MOSUNNY   72  64  78 S10       29.94S
CENTRALIA*     MOSUNNY   75  67  75 S8        29.92S
SALEM*         MOSUNNY   73  69  85 SW9       29.92S
METROPOLIS*    SUNNY     71  65  81 CALM      29.99R
$$

ILZ067-068-072-073-078-083-087-091-261400-
SOUTHEAST ILLINOIS

CITY           SKY/WX    TMP DP  RH WIND       PRES   REMARKS
LAWRENCEVILLE  MOSUNNY   71  65  81 SW9       29.93S HAZE
FLORA*         MOSUNNY   70  65  85 S10       29.92F
FAIRFIELD*     PTSUNNY   72  68  88 S7        29.93S
HARRISBURG*    MOSUNNY   71  69  92 S8        29.97S
ROBINSON*      MOSUNNY   73  66  79 SW5       29.93F
CARMI*         PTSUNNY   72  70  94 S7        29.95S
$$

ABBREVIATIONS USED IN REMARKS
   TC - TEMPERATURE IN CELSIUS
  WCI - WIND CHILL INDEX
   HX - HEAT INDEX
  VSB - VISIBILITY
$$



USA.gov is the U.S. government's official web portal to all federal, state and local government web resources and services.